User: anonymous   Login
Location: Caltech
(34.1382°N, 118.1253°W)
Time: 00:50:41
(UTC-07:00)
Language:

Oscar 10/S400 - Orbit

View from above orbital plane
View from above orbital plane
View from above satellite
View from above satellite

Ground track
Ground track

The orbit data is extracted from the following two-line orbital elements,

1 14129U 83058B   16210.48503359  .00000000  00000-0  10000-3 0  9992
2 14129  26.7795  86.3102 6005467 218.6681  77.3723  2.05863150221155
Epoch (UTC): 28 July 2016 11:38:26
Eccentricity: 0.6005467
inclination: 26.7795°
perigee height: 4048 km
apogee height: 35400 km
right ascension of ascending node: 86.3102°
argument of perigee: 218.6681°
revolutions per day: 2.05863150
mean anomaly at epoch: 77.3723°
orbit number at epoch: 22115

The dashed part of the orbit path shows where the satellite is in the earth's shadow,  

DLR